ICT,Max TemperatureF,Mean TemperatureF,Min TemperatureF,Max Dew PointF,MeanDew PointF,Min DewpointF,Max Humidity, Mean Humidity, Min Humidity, Max Sea Level PressureIn, Mean Sea Level PressureIn, Min Sea Level PressureIn, Max VisibilityMiles, Mean VisibilityMiles, Min VisibilityMiles, Max Wind SpeedMPH, Mean Wind SpeedMPH, Max Gust SpeedMPH,PrecipitationIn, CloudCover, Events, WindDirDegrees
2013-5-1,96,89,82,72,68,63,70,48,39,29.80,29.69,29.59,6,5,4,13,6,,0.00,3,,53
2013-5-2,98,86,75,66,64,61,73,45,30,29.80,29.69,29.56,6,5,4,8,5,,0.00,2,,77
2013-5-3,95,83,71,72,68,66,94,58,39,29.80,29.73,29.65,6,6,5,7,4,,0.00,3,,88
2013-5-4,86,82,77,73,68,63,83,65,48,29.92,29.82,29.74,6,6,5,13,6,26,0.00,5,Rain-Thunderstorm,66
2013-5-5,91,83,75,72,67,64,89,56,41,29.95,29.84,29.74,6,5,4,6,2,,0.00,4,,320
2013-5-6,98,86,75,73,64,61,83,44,29,29.89,29.78,29.65,6,6,4,6,2,,0.00,2,,15
2013-5-7,89,81,75,72,69,64,89,68,43,29.89,29.84,29.77,6,6,4,7,5,,0.00,5,Rain-Thunderstorm,26
2013-5-8,95,85,75,73,70,66,83,63,39,29.83,29.76,29.68,6,5,2,17,6,32,0.00,5,Rain-Thunderstorm,113
2013-5-9,96,86,75,73,71,68,94,63,39,29.83,29.76,29.65,6,5,2,8,3,,0.00,3,Rain-Thunderstorm,246
2013-5-10,96,89,82,72,69,68,70,55,39,29.77,29.69,29.62,6,6,6,9,5,,0.00,4,Rain,134
2013-5-11,93,83,73,72,71,70,94,65,46,29.80,29.72,29.62,6,6,4,6,4,,0.00,3,,87
2013-5-12,91,82,73,72,71,70,88,64,52,29.86,29.78,29.68,6,5,3,7,4,,0.00,5,,52
2013-5-13,95,88,80,77,73,70,89,59,44,29.83,29.73,29.62,6,5,3,8,3,,0.00,4,,122
2013-5-14,98,90,82,77,72,68,84,54,37,29.77,29.64,29.50,6,5,2,8,4,,0.00,5,Thunderstorm,279
2013-5-15,100,89,78,75,71,66,89,54,33,29.65,29.58,29.50,6,6,6,6,2,,0.00,3,,250
2013-5-16,100,90,80,75,70,66,84,49,37,29.62,29.58,29.50,6,6,4,9,4,,0.00,2,,255
2013-5-17,96,86,77,75,72,66,94,68,44,29.74,29.67,29.59,6,6,1,9,4,,0.00,5,Rain-Thunderstorm,245
2013-5-18,95,86,77,75,74,72,89,72,53,29.74,29.69,29.59,6,6,4,9,4,,0.00,4,Rain-Thunderstorm,141
2013-5-19,91,84,77,75,72,68,94,69,52,29.83,29.74,29.68,6,6,4,37,4,,0.00,6,Thunderstorm,209
2013-5-20,91,84,77,75,74,72,94,79,52,29.77,29.72,29.65,6,5,4,10,3,,0.00,6,Rain-Thunderstorm,155
2013-5-21,93,85,77,75,71,66,94,65,43,29.80,29.71,29.65,6,6,5,14,4,,0.00,5,,198
2013-5-22,89,84,78,75,74,70,89,73,55,29.77,29.72,29.68,6,5,4,10,4,,0.00,6,Rain-Thunderstorm,125
2013-5-23,86,82,75,77,75,72,94,80,66,29.83,29.76,29.68,4,3,2,8,5,,0.00,5,Rain,321
2013-5-24,95,85,75,75,74,72,100,75,47,29.83,29.76,29.65,6,5,4,10,3,,0.00,6,Rain-Thunderstorm,87
2013-5-25,89,84,78,77,75,72,89,71,55,29.80,29.74,29.65,6,6,6,15,6,,0.00,6,Thunderstorm,128
2013-5-26,93,86,78,73,70,68,83,55,46,29.80,29.73,29.68,6,6,6,7,4,,0.00,4,,175
2013-5-27,95,86,77,73,72,68,89,62,41,29.80,29.74,29.68,6,6,6,10,4,,0.00,5,Thunderstorm,233
2013-5-28,96,87,78,77,71,68,94,58,41,29.80,29.75,29.68,6,6,4,15,3,,0.00,4,Thunderstorm,300
2013-5-29,91,84,78,77,73,68,83,63,52,29.83,29.76,29.71,6,6,5,10,4,,0.00,5,Thunderstorm,53
2013-5-30,86,80,75,75,73,72,89,73,62,29.89,29.82,29.74,6,6,6,6,4,,0.00,7,,51
2013-5-31,91,84,77,75,71,70,94,61,49,29.86,29.77,29.68,6,6,4,6,3,,0.00,3,,98